Location: Asheville, NC
(35.6000°N, 82.5500°W)
Time: 06:28:30

AO-7 - Pass Details

Date: 11 March 2018
Orbit: 1440 x 1459 km, 101.7° (Epoch: 16 March)

Event Time Altitude Azimuth Distance (km) Brightness Sun altitude
Rises 06:13:49 0° 8° (N) 4,545 ? -19.6°
Reaches altitude 10° 06:16:47 10° 2° (N) 3,562 ? -19.0°
Maximum altitude 06:24:17 40° 297° (WNW) 2,016 ? -17.5°
Enters shadow 06:29:41 19° 240° (WSW) 2,922 ? -16.4°
